STARLINK-31224, 59029

Orbit data source: Space-Track

STARLINK-31224, 59029 is a payload satellite owned by SpaceX/Seattle (US) in LEO that was launched on Sun, 25 Feb 2024 UTC via an FALCON 9 launch vehicle from the Air Force Eastern Test Range (AFETR). Payload-class satellites include a variety of spacecraft equipped with specific instruments for various scientific and technological missions. These include communications satellites like Starlink; space stations such as the ISS; scientific satellites like the Hubble; Earth observation satellites from companies like Planet Labs, Umbra, and HawkEye 360; GPS; miniature CubeSats for education and research; and military/defense satellites.

Loading next visibility...
Identifier
59029, 2024-038G
Orbit
LEO
Country
Flag of USUS
Related business
Manufacturer
SpaceX/Seattle
Mission
Operational Commercial Communications
Bus & Motor
STARLINK V2M, Unknown motor
Mass
730 kg wet, ~700 kg dry
Launch date (UTC)
2024-02-25 (2 years ago)
Launch vehicle
FALCON 9
Launch site
Air Force Eastern Test Range (AFETR)
Object type
Payload
Rocket body
Debris
Shape & HBR
Box + 2 Pan, 17.7 m
Radar Cross Section
33.884 m², Large (>1 m²)

Expand to show TLE details & history
Last TLE update: 23 hours ago

TLE from 23 hours ago
0 STARLINK-31224
1 59029U 24038G   25348.83843254 -.00001068  00000-0 -29284-4 0  9997
2 59029  43.0037 146.0063 0001611 262.8986  97.1683 15.27568075101781
Epoch: 2025-12-14T20:07Z
TLE epoch observation values (Epoch: 2025-12-14T20:07:20.571Z)
Latitude
0.00001°
Longitude
120.425°
Altitude
482.999 km
Speed
7.626 km/s
True Right ascension
09h 44m 01s
True Declination
0° 00' 00"
Sunlit
Object was in full shadow at epoch
Visualization orbit readout
Latitude
Unknown
Longitude
Unknown
Altitude
Unknown
Speed
Unknown
Apparent Right ascension
Unknown
Apparent Declination
Unknown
Sunlit
N/A
Visualization observer readout
Local Sidereal Time
17:23:08
Azimuth
Unknown
Elevation
Unknown
Doppler factor
Unknown
Orbital elements
Apogee altitude
486.135 km
Perigee altitude
483.924 km
Semi-major axis
6,863.166 km
Eccentricity
0.00016
Inclination
43.0037°
RAAN
146.0063°
Arg. of periapsis
262.8986°
True anomaly
97.18662°
Mean anomaly
97.1683°
Eccentric anomaly
97.17746°
Mean motion
3.8173 °/min
Orbital period
94.31 mins
BSTAR
-0.000029284
Loading maneuver chart data...
Computing Atmospheric mass density...
Loading historical data...
Loading historical data...
Loading historical data...
Loading historical data...
Loading historical data...
Loading historical data...
Loading historical data...

Documentation

Showing up to 5 results
|